Tracking 31027 objects as of 19-Jul-2025
HD Live streaming from Space Station
objects crossing your sky now

SL-14 DEB

Track SL-14 DEB now!
10-day predictions


NORAD ID: 25187
Int'l Code: 1987-068N
Perigee: 702.1 km
Apogee: 717.2 km
Inclination: 82.5 °
Period: 98.8 minutes
Semi major axis: 7080 km
RCS: 0.0093 m2 (small)
Launch date: August 18, 1987
Source: Commonwealth of Independent States (former USSR) (CIS)
Launch site: PLESETSK MISSILE AND SPACE COMPLEX (PKMTR)

Note: This is SATELLITE DEBRIS
Your satellite tracking list
STARLINK-6351
Track 1 satellite(s)




NASA's NSSDC Master Catalog

Two Line Element Set (TLE):
1 25187U 87068N   25199.73726240  .00010043  00000-0  22222-2 0  9999
2 25187  82.5359 185.1698 0010658 104.0459 256.1927 14.57106742412307
Source of the keplerian elements: AFSPC